Home   Weather   Sankt Augustin   Past weeks
Flag for Germany

Past Weather in Sankt Augustin, North Rhine-Westphalia, Germany — Yesterday and Last 2 Weeks

Now
54 °F

Passing clouds.


Feels Like: 53 °F
Forecast: 43 / 33 °F
Wind: 3 mph from West

Location: Koeln / Bonn

Current Time: Mar 28, 2020 at 11:06:21 am

Latest Report: Mar 28, 2020 at 10:20 am


Visibility: N/A

Pressure: 30.12 "Hg

Humidity: 54%

Dew Point: 37 °F

Location of Sankt AugustinLocation

Past Weather in Sankt Augustin — Graph

°F

Sankt Augustin Temperature Yesterday

Maximum temperature yesterday: 63 °F (at 2:50 pm)
Minimum temperature yesterday: 34 °F (at 6:50 am)
Average temperature yesterday: 49 °F

High & Low Weather Summary for the Past Weeks

 TemperatureHumidityPressure
High64 °F (Mar 16, 2:50 pm)100% (Mar 14, 3:20 am)30.54 "Hg (Mar 14, 3:20 am)
Low30 °F (Mar 25, 6:50 am)14% (Mar 25, 4:50 pm)29.89 "Hg (Mar 15, 4:50 pm)
Average46 °F57%30.24 "Hg
* Reported Mar 13 9:20 am — Mar 28 9:50 am, Sankt Augustin. Weather by CustomWeather, © 2020

Note: Actual official high and low records may vary slightly from our data, if they occured in-between our weather recording intervals... More about our weather records

Sankt Augustin Weather History for the Previous 24 Hours

Scroll right to see more
 ConditionsComfort  
Time TempWeatherWind HumidityBarometerVisibility
9:50 am
Sat, Mar 28
52 °FPassing clouds.3 mph58%30.15 "HgN/A
9:20 am50 °FSunny.2 mph62%30.15 "Hg10 mi
8:50 am46 °FSunny.1 mph71%30.12 "Hg10 mi
8:20 am45 °FSunny.2 mph71%30.12 "Hg10 mi
7:50 am41 °FSunny.1 mph81%30.12 "Hg10 mi
7:20 am37 °FSunny.5 mph87%30.12 "Hg10 mi
6:50 am36 °FSunny.1 mph87%30.12 "Hg10 mi
6:20 am34 °FPassing clouds.3 mph87%30.09 "HgN/A
5:50 am37 °FClear.2 mph81%30.09 "Hg10 mi
5:20 am36 °FClear.3 mph87%30.09 "Hg10 mi
4:50 am36 °FClear.2 mph87%30.09 "Hg10 mi
4:20 am36 °FClear.2 mph87%30.09 "Hg10 mi
3:50 am39 °FClear.6 mph81%30.09 "Hg10 mi
3:20 am41 °FClear.3 mph76%30.09 "Hg10 mi
2:50 am41 °FClear.2 mph76%30.09 "Hg10 mi
2:20 am43 °FClear.2 mph71%30.09 "Hg10 mi
1:50 am43 °FClear.1 mph71%30.09 "Hg10 mi
1:20 am43 °FClear.1 mph71%30.07 "Hg10 mi
12:50 am41 °FClear.2 mph76%30.07 "Hg10 mi
12:20 am43 °FClear.1 mph71%30.07 "Hg10 mi
11:50 pm
Fri, Mar 27
43 °FClear.3 mph71%30.07 "Hg10 mi
11:20 pm45 °FClear.No wind71%30.07 "Hg10 mi
10:50 pm45 °FClear.1 mph71%30.07 "Hg10 mi
10:20 pm45 °FPassing clouds.3 mph66%30.07 "HgN/A
9:50 pm50 °FClear.7 mph58%30.07 "Hg10 mi
9:20 pm50 °FClear.6 mph58%30.07 "Hg10 mi
8:50 pm50 °FClear.5 mph58%30.07 "Hg10 mi
8:20 pm50 °FClear.5 mph54%30.07 "Hg10 mi
7:50 pm52 °FClear.5 mph50%30.04 "Hg10 mi
7:20 pm55 °FClear.2 mph44%30.04 "Hg10 mi
6:50 pm59 °FPassing clouds.3 mph39%30.04 "HgN/A
6:20 pm61 °FPassing clouds.6 mph36%30.04 "HgN/A
5:50 pm63 °FPassing clouds.9 mph34%30.01 "HgN/A
5:20 pm63 °FPassing clouds.9 mph34%30.01 "HgN/A
4:50 pm63 °FPassing clouds.8 mph32%30.01 "HgN/A
4:20 pm63 °FPassing clouds.9 mph32%30.01 "HgN/A
3:50 pm63 °FPassing clouds.10 mph34%30.01 "HgN/A
3:20 pm63 °FPassing clouds.9 mph34%30.04 "HgN/A
2:50 pm63 °FPassing clouds.9 mph32%30.04 "HgN/A
2:20 pm61 °FPassing clouds.8 mph36%30.04 "HgN/A
1:50 pm61 °FPassing clouds.10 mph34%30.04 "HgN/A
1:20 pm61 °FPassing clouds.8 mph34%30.04 "HgN/A
12:50 pm57 °FPassing clouds.10 mph36%30.04 "HgN/A
12:20 pm57 °FPassing clouds.8 mph36%30.07 "HgN/A
11:50 am57 °FSunny.9 mph39%30.07 "Hg10 mi
11:20 am55 °FPassing clouds.6 mph38%30.07 "HgN/A
Weather by CustomWeather, © 2020

See weather overview

Advertising